Time,TemperatureF,DewpointF,PressureIn,WindDirection,WindDirectionDegrees,WindSpeedMPH,WindSpeedGustMPH,Humidity,HourlyPrecipIn,Conditions,Clouds,dailyrainin,SoftwareType,DateUTC
2013-12-02 00:23:00,29.0,22.0,29.88,WSW,250,2.0,4.0,74,-99.99,,,-99.99,,2013-12-02 05:23:00,
2013-12-02 00:43:00,29.0,22.0,29.88,WSW,240,2.0,4.0,74,-99.99,,,-99.99,,2013-12-02 05:43:00,
2013-12-02 01:42:00,29.0,23.0,29.88,NNW,335,2.0,3.0,78,-99.99,,,-99.99,,2013-12-02 06:42:00,
2013-12-02 02:12:00,29.0,23.0,29.88,NNW,340,2.0,3.0,80,-99.99,,,-99.99,,2013-12-02 07:12:00,
2013-12-02 02:21:00,29.0,23.0,29.88,NNW,335,1.0,3.0,81,-99.99,,,-99.99,,2013-12-02 07:21:00,
2013-12-02 03:22:00,28.0,24.0,29.88,NNW,340,1.0,2.0,83,-99.99,,,-99.99,,2013-12-02 08:22:00,
2013-12-02 03:42:00,28.0,24.0,29.88,NNW,340,1.0,2.0,83,-99.99,,,-99.99,,2013-12-02 08:42:00,
2013-12-02 04:22:00,28.0,24.0,29.88,East,95,2.0,3.0,84,-99.99,,,-99.99,,2013-12-02 09:22:00,
2013-12-02 04:43:00,29.0,23.0,29.88,NE,45,1.0,2.0,80,-99.99,,,-99.99,,2013-12-02 09:43:00,
2013-12-02 04:54:00,28.0,24.0,29.88,North,355,1.0,1.0,82,-99.99,,,-99.99,,2013-12-02 09:54:00,
2013-12-02 05:23:00,28.0,24.0,29.88,NNW,330,3.0,3.0,84,-99.99,,,-99.99,,2013-12-02 10:23:00,
2013-12-02 06:22:00,28.0,24.0,29.88,NW,310,2.0,4.0,82,-99.99,,,-99.99,,2013-12-02 11:22:00,
2013-12-02 06:42:00,28.0,24.0,29.88,NW,310,2.0,3.0,83,-99.99,,,-99.99,,2013-12-02 11:42:00,
2013-12-02 07:42:00,28.0,24.0,29.88,WNW,300,1.0,4.0,83,-99.99,,,-99.99,,2013-12-02 12:42:00,
2013-12-02 07:52:00,28.0,24.0,29.88,West,270,1.0,3.0,83,-99.99,,,-99.99,,2013-12-02 12:52:00,
2013-12-02 08:22:00,29.0,23.0,29.88,WNW,290,2.0,4.0,80,-99.99,,,-99.99,,2013-12-02 13:22:00,
2013-12-02 09:11:00,29.0,23.0,29.88,WNW,290,0.0,1.0,80,-99.99,,,-99.99,,2013-12-02 14:11:00,
2013-12-02 09:22:00,29.0,23.0,29.88,ESE,120,0.0,3.0,78,-99.99,,,-99.99,,2013-12-02 14:22:00,
2013-12-02 10:22:00,30.0,20.0,29.88,SSE,165,5.0,8.0,65,-99.99,,,-99.99,,2013-12-02 15:22:00,
2013-12-02 10:43:00,30.0,20.0,29.88,South,175,4.0,7.0,65,-99.99,,,-99.99,,2013-12-02 15:43:00,
2013-12-02 11:23:00,30.0,22.0,29.88,South,175,4.0,8.0,70,-99.99,,,-99.99,,2013-12-02 16:23:00,
2013-12-02 12:22:00,31.0,21.0,29.88,SSW,195,4.0,6.0,67,-99.99,,,-99.99,,2013-12-02 17:22:00,
2013-12-02 13:22:00,31.0,20.0,29.88,South,190,4.0,7.0,65,-99.99,,,-99.99,,2013-12-02 18:22:00,
2013-12-02 13:42:00,31.0,21.0,29.88,South,175,3.0,8.0,67,-99.99,,,-99.99,,2013-12-02 18:42:00,
2013-12-02 14:12:00,30.0,21.0,29.88,SSE,160,5.0,7.0,68,-99.99,,,-99.99,,2013-12-02 19:12:00,
2013-12-02 14:22:00,30.0,21.0,29.88,SSE,160,5.0,7.0,68,-99.99,,,-99.99,,2013-12-02 19:22:00,
2013-12-02 14:42:00,30.0,21.0,29.88,South,180,4.0,8.0,68,-99.99,,,-99.99,,2013-12-02 19:42:00,
2013-12-02 16:12:00,30.0,19.0,29.88,SSE,155,4.0,8.0,63,-99.99,,,-99.99,,2013-12-02 21:12:00,
2013-12-02 16:22:00,30.0,19.0,29.88,SSE,165,5.0,10.0,63,-99.99,,,-99.99,,2013-12-02 21:22:00,
2013-12-02 16:43:00,30.0,19.0,29.88,SSE,155,5.0,10.0,63,-99.99,,,-99.99,,2013-12-02 21:43:00,
2013-12-02 17:23:00,28.0,20.0,29.88,WSW,240,2.0,2.0,71,-99.99,,,-99.99,,2013-12-02 22:23:00,
2013-12-02 18:22:00,25.0,20.0,29.88,SW,230,2.0,4.0,79,-99.99,,,-99.99,,2013-12-02 23:22:00,
2013-12-02 20:22:00,20.0,18.0,29.88,WNW,295,3.0,5.0,89,-99.99,,,-99.99,,2013-12-03 01:22:00,
2013-12-02 21:22:00,19.0,17.0,29.88,West,270,3.0,3.0,89,-99.99,,,-99.99,,2013-12-03 02:22:00,
2013-12-02 21:42:00,19.0,17.0,29.88,SW,230,2.0,4.0,89,-99.99,,,-99.99,,2013-12-03 02:42:00,
2013-12-02 22:22:00,19.0,15.0,29.88,SW,230,2.0,4.0,86,-99.99,,,-99.99,,2013-12-03 03:22:00,
2013-12-02 22:43:00,21.0,18.0,29.88,SSW,200,4.0,7.0,88,-99.99,,,-99.99,,2013-12-03 03:43:00,
2013-12-02 23:23:00,21.0,18.0,29.88,SW,235,4.0,6.0,87,-99.99,,,-99.99,,2013-12-03 04:23:00,
2013-12-02 23:43:00,21.0,18.0,29.88,WSW,250,3.0,5.0,86,-99.99,,,-99.99,,2013-12-03 04:43:00,
2013-12-02 23:52:00,21.0,18.0,29.88,WSW,255,4.0,6.0,86,-99.99,,,-99.99,,2013-12-03 04:52:00,